Location: Perryvale
(54.4667°N, 113.3833°W)
Time: 21:35:48
(UTC+00:00)

Transit 2A - Pass Details

Date: 28 May 2024
Orbit: 592 x 959 km, 66.7° (Epoch: 19 June)

Event Time Altitude Azimuth Distance (km) Brightness Sun altitude
Rises 04:40:06 0° 193° (SSW) 2,958 8.7 -5.7°
Reaches altitude 10° 04:42:24 10° 185° (S) 2,097 7.9 -5.9°
Maximum altitude 04:46:48 39° 118° (ESE) 1,080 6.4 -6.3°
Drops below altitude 10° 04:51:40 10° 51° (NE) 2,326 8.5 -6.7°
Sets 04:54:20 0° 44° (NE) 3,324 9.4 -6.9°
